Location: Unspecified
(0.0000°N, 0.0000°E)
Time: 16:23:16
(UTC+00:00)

deb Explorer IX - Pass Details

Date: 20 November 2019
Orbit: 546 x 1104 km, 38.8° (Epoch: 12 December)

Event Time Altitude Azimuth Distance (km) Brightness Sun altitude
Rises 19:55:17 0° 220° (SW) 3,772 ? -30.3°
Reaches altitude 10° 19:57:59 10° 215° (SW) 2,872 ? -30.9°
Enters shadow 20:04:09 53° 163° (SSE) 1,323 ? -32.3°
Maximum altitude 20:04:57 56° 139° (SE) 1,291 - -32.5°
Drops below altitude 10° 20:12:05 10° 62° (ENE) 2,935 - -34.1°
Sets 20:14:51 0° 58° (ENE) 3,861 - -34.8°
